カタログに戻る

STARLINK-34870

運用中通信VLEO
NORAD 65370·PAYLOAD·🇺🇸 United States

打ち上げ Aug 28, 2025 から Cape Canaveral Space Force Station

Loading…

次のパス (今後24時間)

TLE

最新Source: CelesTrak SupGP

元期: Sep 14, 2026, 21:42 UTC

1 65370C 25190V   26257.90465278  .00006512  00000+0  19239-3 0  2578
2 65370  53.1596   7.8314 0001298  73.7401 354.9629 15.34388763    14

AllMySatでSTARLINK-34870をリアルタイム追跡

Download on the App Store